Weather History for KDXX - September, 2012

Change the Weather History Date:

Saturday, September 22, 2012

  Actual Average (KAQP) Record (KAQP)
Temperature  
Mean Temperature 44 °F -  
Max Temperature 55 °F 67 °F 86 °F (2013)
Min Temperature 30 °F 42 °F 33 °F (1998)
Degree Days  
Heating Degree Days 22    
Moisture  
Dew Point 26 °F    
Average Humidity 54    
Maximum Humidity 81    
Minimum Humidity 26    
Precipitation  
Precipitation 0.00 in - - ()
Sea Level Pressure  
Sea Level Pressure 30.22 in    
Wind  
Wind Speed 13 mph (NW)    
Max Wind Speed 22 mph    
Max Gust Speed 30 mph    
Visibility 10 miles    
Events      
Averages and records for this station are not official NWS values.
T = Trace of Precipitation, MM = Missing Value Source: NWS Daily Summary

Daily Weather History Graph

Daily Weather History Graph

Search for Another Location

Airport or City:

Trip Planner

Search our weather history database for the weather conditions in past years. The results will help you decide how hot, cold, wet, or windy it might be!

Date:

Astronomy

Sep. 22, 2012 Rise Set
Actual Time 7:12 AM CDT 7:21 PM CDT
Civil Twilight 6:43 AM CDT 7:50 PM CDT
Nautical Twilight 6:08 AM CDT 8:24 PM CDT
Astronomical Twilight 5:33 AM CDT 8:59 PM CDT
Moon 2:46 PM CDT (9/22) No Moon Set
Length of Visible Light 13h 07m
Length of Day
12h 08m
Waxing Crescent, 49% of the Moon is Illuminated
Sep 22
Waxing Crescent
Sep 22
First Quarter
Sep 29
Full
Oct 8
Last Quarter
Oct 15
New

Hourly Weather History & Observations

Time (CDT) Temp. Windchill Dew Point Humidity Pressure Visibility Wind Dir Wind Speed Gust Speed Precip Events Conditions
12:14 AM 42.8 °F 33.8 °F 17.6 °F 36% 30.06 in 10.0 mi North 21.9 mph 29.9 mph N/A   Clear
12:34 AM 41.0 °F 32.5 °F 19.4 °F 42% 30.06 in 10.0 mi North 17.3 mph 24.2 mph N/A   Clear
12:54 AM 39.2 °F 30.8 °F 21.2 °F 49% 30.06 in 10.0 mi NNW 15.0 mph 20.7 mph N/A   Clear
1:13 AM 39.2 °F 31.2 °F 21.2 °F 49% 30.07 in 10.0 mi NW 13.8 mph 19.6 mph N/A   Clear
1:34 AM 39.2 °F 31.2 °F 21.2 °F 49% 30.07 in 10.0 mi NNW 13.8 mph 19.6 mph N/A   Clear
1:54 AM 39.2 °F 30.8 °F 23.0 °F 52% 30.08 in 10.0 mi NW 15.0 mph - N/A   Clear
2:13 AM 39.2 °F 31.2 °F 23.0 °F 52% 30.09 in 10.0 mi NW 13.8 mph 19.6 mph N/A   Clear
2:34 AM 39.2 °F 31.6 °F 24.8 °F 56% 30.10 in 10.0 mi NNW 12.7 mph 19.6 mph N/A   Clear
2:54 AM 39.2 °F 30.5 °F 24.8 °F 56% 30.10 in 10.0 mi NNW 16.1 mph 24.2 mph N/A   Clear
3:13 AM 39.2 °F 30.5 °F 26.6 °F 61% 30.11 in 10.0 mi NNW 16.1 mph 19.6 mph N/A   Clear
3:34 AM 39.2 °F 31.2 °F 26.6 °F 61% 30.11 in 10.0 mi NNW 13.8 mph - N/A   Clear
3:54 AM 37.4 °F 29.3 °F 26.6 °F 65% 30.12 in 10.0 mi NW 12.7 mph - N/A   Clear
4:13 AM 37.4 °F 29.8 °F 26.6 °F 65% 30.13 in 10.0 mi NW 11.5 mph - N/A   Clear
4:34 AM 37.4 °F 30.8 °F 28.4 °F 70% 30.14 in 10.0 mi NW 9.2 mph - N/A   Clear
4:54 AM 37.4 °F 30.3 °F 28.4 °F 70% 30.15 in 10.0 mi NW 10.4 mph - N/A   Clear
5:13 AM 35.6 °F 28.6 °F 28.4 °F 75% 30.16 in 10.0 mi NW 9.2 mph - N/A   Clear
5:34 AM 35.6 °F 27.5 °F 28.4 °F 75% 30.17 in 10.0 mi NW 11.5 mph - N/A   Clear
5:53 AM 35.6 °F 28.0 °F 28.4 °F 75% 30.18 in 10.0 mi NW 10.4 mph - N/A   Clear
6:14 AM 35.6 °F 27.1 °F 28.4 °F 75% 30.18 in 10.0 mi NW 12.7 mph - N/A   Clear
6:34 AM 35.6 °F 28.0 °F 28.4 °F 75% 30.20 in 10.0 mi NW 10.4 mph - N/A   Clear
6:53 AM 35.6 °F 28.6 °F 28.4 °F 75% 30.21 in 10.0 mi NW 9.2 mph - N/A   Clear
7:14 AM 33.8 °F 25.8 °F 28.4 °F 81% 30.21 in 10.0 mi NW 10.4 mph - N/A   Clear
7:34 AM 33.8 °F 26.4 °F 28.4 °F 81% 30.23 in 10.0 mi NW 9.2 mph - N/A   Clear
7:53 AM 35.6 °F 27.5 °F 30.2 °F 81% 30.24 in 10.0 mi NW 11.5 mph - N/A   Clear
8:14 AM 37.4 °F 29.8 °F 30.2 °F 75% 30.24 in 10.0 mi NW 11.5 mph - N/A   Clear
8:34 AM 39.2 °F 32.0 °F 30.2 °F 70% 30.25 in 10.0 mi NW 11.5 mph - N/A   Clear
8:53 AM 39.2 °F 31.2 °F 30.2 °F 70% 30.26 in 10.0 mi NW 13.8 mph - N/A   Clear
9:14 AM 41.0 °F 33.1 °F 32.0 °F 70% 30.26 in 10.0 mi NW 15.0 mph 19.6 mph N/A   Clear
9:53 AM 42.8 °F 35.8 °F 32.0 °F 66% 30.27 in 10.0 mi NW 13.8 mph - N/A   Clear
10:14 AM 44.6 °F 38.8 °F 32.0 °F 61% 30.28 in 10.0 mi NNW 11.5 mph 18.4 mph N/A   Clear
10:34 AM 44.6 °F 39.2 °F 32.0 °F 61% 30.28 in 10.0 mi NNW 10.4 mph - N/A   Clear
10:53 AM 46.4 °F 41.1 °F 33.8 °F 62% 30.28 in 10.0 mi NNW 11.5 mph 18.4 mph N/A   Clear
11:14 AM 48.2 °F - 33.8 °F 58% 30.29 in 10.0 mi NNW 13.8 mph 18.4 mph N/A   Clear
11:33 AM 48.2 °F - 33.8 °F 58% 30.29 in 10.0 mi NW 11.5 mph - N/A   Clear
11:54 AM 50.0 °F - 32.0 °F 50% 30.29 in 10.0 mi NW 6.9 mph - N/A   Clear
12:14 PM 51.8 °F - 32.0 °F 47% 30.29 in 10.0 mi NNW 15.0 mph 18.4 mph N/A   Clear
12:33 PM 51.8 °F - 32.0 °F 47% 30.28 in 10.0 mi NNW 12.7 mph 19.6 mph N/A   Clear
1:14 PM 53.6 °F - 30.2 °F 41% 30.28 in 10.0 mi NNW 17.3 mph 21.9 mph N/A   Clear
1:33 PM 53.6 °F - 28.4 °F 38% 30.28 in 10.0 mi NNW 13.8 mph 20.7 mph N/A   Clear
1:54 PM 55.4 °F - 26.6 °F 33% 30.28 in 10.0 mi NNW 18.4 mph 25.3 mph N/A   Clear
2:14 PM 55.4 °F - 24.8 °F 31% 30.27 in 10.0 mi NNW 15.0 mph 20.7 mph N/A   Clear
2:33 PM 55.4 °F - 24.8 °F 31% 30.27 in 10.0 mi NW 16.1 mph 24.2 mph N/A   Clear
2:54 PM 55.4 °F - 23.0 °F 29% 30.27 in 10.0 mi NNW 16.1 mph 19.6 mph N/A   Clear
3:14 PM 55.4 °F - 21.2 °F 26% 30.27 in 10.0 mi North 17.3 mph 23.0 mph N/A   Clear
3:33 PM 55.4 °F - 23.0 °F 29% 30.27 in 10.0 mi NNW 15.0 mph 23.0 mph N/A   Clear
3:54 PM 55.4 °F - 21.2 °F 26% 30.27 in 10.0 mi NNW 16.1 mph 23.0 mph N/A   Clear
4:14 PM 55.4 °F - 21.2 °F 26% 30.27 in 10.0 mi NNW 15.0 mph - N/A   Clear
4:33 PM 55.4 °F - 21.2 °F 26% 30.27 in 10.0 mi North 13.8 mph 23.0 mph N/A   Clear
4:54 PM 55.4 °F - 21.2 °F 26% 30.26 in 10.0 mi North 15.0 mph - N/A   Clear
5:14 PM 55.4 °F - 21.2 °F 26% 30.26 in 10.0 mi NNW 15.0 mph 19.6 mph N/A   Clear
5:34 PM 53.6 °F - 21.2 °F 28% 30.26 in 10.0 mi NNW 12.7 mph 18.4 mph N/A   Clear
5:53 PM 53.6 °F - 21.2 °F 28% 30.26 in 10.0 mi North 10.4 mph - N/A   Clear
6:14 PM 53.6 °F - 21.2 °F 28% 30.26 in 10.0 mi NNW 12.7 mph - N/A   Clear
6:34 PM 53.6 °F - 23.0 °F 30% 30.26 in 10.0 mi NNW 11.5 mph - N/A   Clear
6:53 PM 51.8 °F - 24.8 °F 35% 30.26 in 10.0 mi NNW 8.1 mph - N/A   Clear
7:14 PM 48.2 °F - 24.8 °F 40% 30.26 in 10.0 mi North 6.9 mph - N/A   Clear
7:34 PM 46.4 °F 42.9 °F 24.8 °F 43% 30.26 in 10.0 mi North 6.9 mph - N/A   Clear
7:53 PM 46.4 °F 43.5 °F 24.8 °F 43% 30.26 in 7.0 mi North 5.8 mph - N/A   Clear
8:14 PM 44.6 °F 41.4 °F 26.6 °F 49% 30.26 in 10.0 mi North 5.8 mph - N/A   Clear
8:34 PM 44.6 °F 41.4 °F 26.6 °F 49% 30.27 in 10.0 mi North 5.8 mph - N/A   Clear
8:53 PM 41.0 °F 39.0 °F 26.6 °F 57% 30.27 in 10.0 mi NW 3.5 mph - N/A   Clear
9:14 PM 39.2 °F 37.0 °F 26.6 °F 61% 30.27 in 10.0 mi NW 3.5 mph - N/A   Clear
9:34 PM 37.4 °F 33.8 °F 26.6 °F 65% 30.28 in 10.0 mi NW 4.6 mph - N/A   Clear
9:54 PM 37.4 °F 33.8 °F 26.6 °F 65% 30.28 in 10.0 mi NW 4.6 mph - N/A   Clear
10:14 PM 33.8 °F 28.6 °F 24.8 °F 70% 30.28 in 10.0 mi WNW 5.8 mph - N/A   Clear
10:33 PM 33.8 °F 29.6 °F 24.8 °F 70% 30.28 in 10.0 mi WNW 4.6 mph - N/A   Clear
10:54 PM 33.8 °F 29.6 °F 24.8 °F 70% 30.29 in 10.0 mi WNW 4.6 mph - N/A   Clear
11:14 PM 33.8 °F 30.8 °F 24.8 °F 70% 30.29 in 10.0 mi WNW 3.5 mph - N/A   Clear
11:34 PM 32.0 °F 28.7 °F 24.8 °F 75% 30.29 in 10.0 mi WNW 3.5 mph - N/A   Clear
11:54 PM 30.2 °F 24.3 °F 24.8 °F 80% 30.29 in 10.0 mi West 5.8 mph - N/A   Clear